Time,TemperatureF,DewpointF,PressureIn,WindDirection,WindDirectionDegrees,WindSpeedMPH,WindSpeedGustMPH,Humidity,HourlyPrecipIn,Conditions,Clouds,dailyrainin,SoftwareType,DateUTC
2013-02-27 00:02:00,70.0,67.0,29.87,West,263,0.0,0.0,90,0.00,,,0.00,,2013-02-27 05:02:00,
2013-02-27 00:12:00,70.0,67.0,29.87,West,263,0.0,0.0,90,0.00,,,0.00,,2013-02-27 05:12:00,
2013-02-27 00:22:00,70.0,67.0,29.87,West,263,0.0,0.0,90,0.00,,,0.00,,2013-02-27 05:22:00,
2013-02-27 00:32:00,70.0,67.0,29.87,West,263,0.0,0.0,90,0.00,,,0.00,,2013-02-27 05:32:00,
2013-02-27 00:42:00,70.0,67.0,29.87,West,263,0.0,0.0,90,0.00,,,0.00,,2013-02-27 05:42:00,
2013-02-27 00:52:00,68.0,65.0,29.88,West,263,0.0,0.0,91,0.00,,,0.00,,2013-02-27 05:52:00,
2013-02-27 01:02:00,68.0,66.0,29.88,West,263,0.0,0.0,92,0.00,,,0.00,,2013-02-27 06:02:00,
2013-02-27 01:11:00,68.0,66.0,29.88,West,263,0.0,0.0,92,0.00,,,0.00,,2013-02-27 06:11:00,
2013-02-27 01:21:00,68.0,66.0,29.88,West,263,0.0,0.0,92,0.00,,,0.00,,2013-02-27 06:21:00,
2013-02-27 01:33:00,68.0,66.0,29.88,West,263,0.0,0.0,92,0.00,,,0.00,,2013-02-27 06:33:00,
2013-02-27 01:42:00,68.0,66.0,29.88,West,263,0.0,0.0,92,0.00,,,0.00,,2013-02-27 06:42:00,
2013-02-27 01:52:00,68.0,66.0,29.88,West,263,0.0,0.0,92,0.00,,,0.00,,2013-02-27 06:52:00,
2013-02-27 02:01:00,67.0,65.0,29.88,West,263,0.0,0.0,92,0.00,,,0.00,,2013-02-27 07:01:00,
2013-02-27 02:12:00,67.0,65.0,29.88,West,263,0.0,0.0,92,0.00,,,0.00,,2013-02-27 07:12:00,
2013-02-27 02:21:00,67.0,65.0,29.88,West,263,0.0,0.0,93,0.00,,,0.00,,2013-02-27 07:21:00,
2013-02-27 02:32:00,67.0,65.0,29.88,West,263,0.0,0.0,93,0.00,,,0.00,,2013-02-27 07:32:00,
2013-02-27 02:42:00,67.0,65.0,29.88,West,263,0.0,0.0,93,0.00,,,0.00,,2013-02-27 07:42:00,
2013-02-27 02:52:00,66.0,64.0,29.88,West,263,0.0,0.0,93,0.00,,,0.00,,2013-02-27 07:52:00,
2013-02-27 03:01:00,66.0,64.0,29.87,West,263,0.0,0.0,93,0.00,,,0.00,,2013-02-27 08:01:00,
2013-02-27 03:11:00,66.0,64.0,29.87,West,263,0.0,0.0,93,0.00,,,0.00,,2013-02-27 08:11:00,
2013-02-27 03:21:00,66.0,64.0,29.86,West,263,0.0,0.0,94,0.00,,,0.00,,2013-02-27 08:21:00,
2013-02-27 03:32:00,65.0,63.0,29.86,West,263,0.0,0.0,94,0.00,,,0.00,,2013-02-27 08:32:00,
2013-02-27 03:42:00,65.0,63.0,29.86,West,263,0.0,0.0,94,0.00,,,0.00,,2013-02-27 08:42:00,
2013-02-27 03:53:00,65.0,63.0,29.86,West,263,0.0,0.0,93,0.00,,,0.00,,2013-02-27 08:53:00,
2013-02-27 04:02:00,65.0,63.0,29.86,West,263,0.0,0.0,94,0.00,,,0.00,,2013-02-27 09:02:00,
2013-02-27 04:12:00,65.0,63.0,29.86,West,263,0.0,0.0,94,0.00,,,0.00,,2013-02-27 09:12:00,
2013-02-27 04:22:00,65.0,63.0,29.86,West,263,0.0,0.0,94,0.00,,,0.00,,2013-02-27 09:22:00,
2013-02-27 04:32:00,65.0,63.0,29.88,West,263,0.0,0.0,94,0.00,,,0.00,,2013-02-27 09:32:00,
2013-02-27 04:41:00,65.0,63.0,29.88,West,263,0.0,0.0,94,0.00,,,0.00,,2013-02-27 09:41:00,
2013-02-27 04:52:00,65.0,64.0,29.88,West,263,0.0,0.0,95,0.00,,,0.00,,2013-02-27 09:52:00,
2013-02-27 05:01:00,65.0,64.0,29.88,West,263,0.0,0.0,95,0.00,,,0.00,,2013-02-27 10:01:00,
2013-02-27 05:12:00,65.0,64.0,29.88,West,263,0.0,0.0,95,0.00,,,0.00,,2013-02-27 10:12:00,
2013-02-27 05:22:00,66.0,65.0,29.88,West,263,0.0,0.0,95,0.00,,,0.00,,2013-02-27 10:22:00,
2013-02-27 05:32:00,66.0,65.0,29.89,West,263,0.0,0.0,95,0.00,,,0.00,,2013-02-27 10:32:00,
2013-02-27 05:42:00,66.0,65.0,29.89,West,263,0.0,0.0,95,0.00,,,0.00,,2013-02-27 10:42:00,
2013-02-27 05:53:00,65.0,64.0,29.90,West,263,0.0,0.0,95,0.00,,,0.00,,2013-02-27 10:53:00,
2013-02-27 06:02:00,65.0,63.0,29.89,West,263,0.0,0.0,94,0.00,,,0.00,,2013-02-27 11:02:00,
2013-02-27 06:12:00,65.0,63.0,29.89,West,263,0.0,0.0,94,0.00,,,0.00,,2013-02-27 11:12:00,
2013-02-27 06:22:00,65.0,63.0,29.90,West,263,0.0,0.0,94,0.00,,,0.00,,2013-02-27 11:22:00,
2013-02-27 06:32:00,65.0,64.0,29.91,West,263,0.0,0.0,95,0.00,,,0.00,,2013-02-27 11:32:00,
2013-02-27 06:42:00,65.0,64.0,29.91,West,263,0.0,0.0,95,0.00,,,0.00,,2013-02-27 11:42:00,
2013-02-27 06:52:00,65.0,64.0,29.90,West,263,0.0,0.0,95,0.00,,,0.00,,2013-02-27 11:52:00,
2013-02-27 07:02:00,65.0,64.0,29.90,West,263,0.0,0.0,95,0.00,,,0.00,,2013-02-27 12:02:00,
2013-02-27 07:13:00,65.0,64.0,29.90,West,263,0.0,0.0,95,0.00,,,0.00,,2013-02-27 12:13:00,
2013-02-27 07:22:00,65.0,63.0,29.91,West,263,0.0,0.0,94,0.00,,,0.00,,2013-02-27 12:22:00,
2013-02-27 07:33:00,64.0,63.0,29.91,West,263,0.0,0.0,95,0.00,,,0.00,,2013-02-27 12:33:00,
2013-02-27 07:42:00,64.0,63.0,29.91,West,263,0.0,0.0,95,0.00,,,0.00,,2013-02-27 12:42:00,
2013-02-27 07:53:00,65.0,64.0,29.92,West,263,0.0,0.0,95,0.00,,,0.00,,2013-02-27 12:53:00,
2013-02-27 08:02:00,65.0,64.0,29.92,West,263,0.0,0.0,95,0.00,,,0.00,,2013-02-27 13:02:00,
2013-02-27 08:11:00,65.0,64.0,29.92,West,263,0.0,0.0,95,0.00,,,0.00,,2013-02-27 13:11:00,
2013-02-27 08:22:00,66.0,65.0,29.92,West,263,0.0,1.0,95,0.00,,,0.00,,2013-02-27 13:22:00,
2013-02-27 08:32:00,67.0,66.0,29.92,NW,324,0.0,1.0,95,0.00,,,0.00,,2013-02-27 13:32:00,
2013-02-27 08:42:00,67.0,66.0,29.92,NW,324,0.0,1.0,95,0.00,,,0.00,,2013-02-27 13:42:00,
2013-02-27 08:52:00,68.0,67.0,29.93,NNE,28,0.0,1.0,95,0.00,,,0.00,,2013-02-27 13:52:00,
2013-02-27 09:02:00,68.0,66.0,29.93,NNE,28,0.0,1.0,93,0.00,,,0.00,,2013-02-27 14:02:00,
2013-02-27 09:12:00,68.0,66.0,29.93,NNE,28,0.0,1.0,93,0.00,,,0.00,,2013-02-27 14:12:00,
2013-02-27 09:22:00,70.0,66.0,29.94,NE,42,0.0,3.0,87,0.00,,,0.00,,2013-02-27 14:22:00,
2013-02-27 09:32:00,70.0,66.0,29.94,NNW,342,0.0,3.0,86,0.00,,,0.00,,2013-02-27 14:32:00,
2013-02-27 09:42:00,70.0,66.0,29.94,NNW,342,0.0,3.0,86,0.00,,,0.00,,2013-02-27 14:42:00,
2013-02-27 09:52:00,72.0,66.0,29.95,NNW,348,0.0,4.0,81,0.00,,,0.00,,2013-02-27 14:52:00,
2013-02-27 10:02:00,72.0,66.0,29.95,NW,321,0.0,4.0,81,0.00,,,0.00,,2013-02-27 15:02:00,
2013-02-27 10:12:00,72.0,66.0,29.95,NW,321,0.0,4.0,81,0.00,,,0.00,,2013-02-27 15:12:00,
2013-02-27 10:22:00,72.0,65.0,29.96,NNW,329,0.0,2.0,78,0.00,,,0.00,,2013-02-27 15:22:00,
2013-02-27 10:32:00,72.0,65.0,29.96,NNW,329,0.0,2.0,78,0.00,,,0.00,,2013-02-27 15:32:00,
2013-02-27 10:42:00,72.0,65.0,29.96,NNW,329,0.0,2.0,78,0.00,,,0.00,,2013-02-27 15:42:00,
2013-02-27 10:52:00,74.0,65.0,29.96,NW,315,0.0,3.0,74,0.00,,,0.00,,2013-02-27 15:52:00,
2013-02-27 11:02:00,74.0,65.0,29.96,NNW,329,0.0,8.0,73,0.00,,,0.00,,2013-02-27 16:02:00,
2013-02-27 11:12:00,74.0,65.0,29.96,NNW,329,0.0,8.0,73,0.00,,,0.00,,2013-02-27 16:12:00,
2013-02-27 11:22:00,73.0,64.0,29.96,NNW,330,0.0,1.0,74,0.00,,,0.00,,2013-02-27 16:22:00,
2013-02-27 11:32:00,74.0,65.0,29.96,WSW,252,0.0,3.0,74,0.00,,,0.00,,2013-02-27 16:32:00,
2013-02-27 11:42:00,74.0,65.0,29.96,WSW,252,0.0,3.0,74,0.00,,,0.00,,2013-02-27 16:42:00,
2013-02-27 11:52:00,74.0,65.0,29.96,WSW,252,0.0,3.0,74,0.00,,,0.00,,2013-02-27 16:52:00,
2013-02-27 12:02:00,74.0,65.0,29.96,WNW,286,0.0,3.0,73,0.00,,,0.00,,2013-02-27 17:02:00,
2013-02-27 12:11:00,74.0,65.0,29.96,WNW,286,0.0,3.0,73,0.00,,,0.00,,2013-02-27 17:11:00,
2013-02-27 12:21:00,74.0,66.0,29.95,WNW,286,0.0,0.0,77,0.01,,,0.01,,2013-02-27 17:21:00,
2013-02-27 12:32:00,72.0,62.0,29.95,WNW,283,0.0,2.0,71,0.01,,,0.01,,2013-02-27 17:32:00,
2013-02-27 12:42:00,72.0,62.0,29.95,WNW,283,0.0,2.0,71,0.01,,,0.01,,2013-02-27 17:42:00,
2013-02-27 12:52:00,73.0,63.0,29.93,WNW,283,0.0,1.0,72,0.01,,,0.01,,2013-02-27 17:52:00,
2013-02-27 13:02:00,73.0,63.0,29.94,WNW,283,0.0,1.0,70,0.01,,,0.01,,2013-02-27 18:02:00,
2013-02-27 13:11:00,73.0,63.0,29.94,WNW,283,0.0,1.0,70,0.01,,,0.01,,2013-02-27 18:11:00,
2013-02-27 13:22:00,73.0,63.0,29.93,WNW,283,0.0,0.0,71,0.01,,,0.01,,2013-02-27 18:22:00,
2013-02-27 13:32:00,73.0,64.0,29.93,WNW,283,0.0,1.0,73,0.01,,,0.01,,2013-02-27 18:32:00,
2013-02-27 13:42:00,73.0,64.0,29.93,WNW,283,0.0,1.0,73,0.01,,,0.01,,2013-02-27 18:42:00,
2013-02-27 13:52:00,72.0,64.0,29.92,ESE,115,0.0,3.0,77,0.01,,,0.01,,2013-02-27 18:52:00,
2013-02-27 14:01:00,71.0,64.0,29.92,WSW,250,1.0,3.0,79,0.00,,,0.01,,2013-02-27 19:01:00,
2013-02-27 14:12:00,71.0,64.0,29.92,WSW,250,1.0,3.0,79,0.00,,,0.01,,2013-02-27 19:12:00,
2013-02-27 14:21:00,71.0,64.0,29.92,WSW,250,1.0,3.0,79,0.00,,,0.01,,2013-02-27 19:21:00,
2013-02-27 14:32:00,71.0,64.0,29.92,WSW,250,1.0,3.0,79,0.00,,,0.01,,2013-02-27 19:32:00,
2013-02-27 14:52:00,69.0,64.0,29.93,WSW,248,1.0,3.0,83,0.01,,,0.02,,2013-02-27 19:52:00,
2013-02-27 15:02:00,69.0,64.0,29.93,WSW,248,1.0,3.0,83,0.01,,,0.02,,2013-02-27 20:02:00,
2013-02-27 15:12:00,69.0,64.0,29.93,WSW,248,1.0,3.0,83,0.01,,,0.02,,2013-02-27 20:12:00,
2013-02-27 15:22:00,69.0,64.0,29.93,WSW,248,1.0,3.0,83,0.01,,,0.02,,2013-02-27 20:22:00,
2013-02-27 15:32:00,66.0,63.0,29.92,SSW,213,0.0,4.0,90,0.09,,,0.10,,2013-02-27 20:32:00,
2013-02-27 15:42:00,66.0,63.0,29.92,SSW,213,0.0,4.0,90,0.09,,,0.10,,2013-02-27 20:42:00,
2013-02-27 15:53:00,65.0,62.0,29.92,SSE,159,0.0,1.0,90,0.09,,,0.10,,2013-02-27 20:53:00,
2013-02-27 16:02:00,65.0,62.0,29.92,SSE,159,0.0,1.0,90,0.09,,,0.10,,2013-02-27 21:02:00,
2013-02-27 16:11:00,65.0,62.0,29.92,SSE,159,0.0,1.0,90,0.09,,,0.10,,2013-02-27 21:11:00,
2013-02-27 16:22:00,65.0,62.0,29.92,SSE,159,0.0,0.0,90,0.00,,,0.10,,2013-02-27 21:22:00,
2013-02-27 16:32:00,65.0,62.0,29.91,SSE,159,0.0,0.0,90,0.00,,,0.10,,2013-02-27 21:32:00,
2013-02-27 16:42:00,65.0,62.0,29.91,SSE,159,0.0,0.0,90,0.00,,,0.10,,2013-02-27 21:42:00,
2013-02-27 16:52:00,66.0,63.0,29.91,SSE,159,0.0,0.0,90,0.00,,,0.10,,2013-02-27 21:52:00,
2013-02-27 17:01:00,66.0,63.0,29.91,SSE,159,0.0,0.0,90,0.00,,,0.10,,2013-02-27 22:01:00,
2013-02-27 17:11:00,66.0,63.0,29.91,SSE,159,0.0,0.0,90,0.00,,,0.10,,2013-02-27 22:11:00,
2013-02-27 17:21:00,66.0,63.0,29.91,SSE,159,0.0,0.0,91,0.00,,,0.10,,2013-02-27 22:21:00,
2013-02-27 17:32:00,66.0,63.0,29.91,SSE,159,0.0,0.0,91,0.00,,,0.10,,2013-02-27 22:32:00,
2013-02-27 17:42:00,66.0,63.0,29.91,SSE,159,0.0,0.0,91,0.00,,,0.10,,2013-02-27 22:42:00,
2013-02-27 17:52:00,67.0,65.0,29.91,SSE,159,0.0,0.0,92,0.00,,,0.10,,2013-02-27 22:52:00,
2013-02-27 18:01:00,67.0,65.0,29.91,SSE,159,0.0,0.0,92,0.00,,,0.10,,2013-02-27 23:01:00,
2013-02-27 18:11:00,67.0,65.0,29.91,SSE,159,0.0,0.0,92,0.00,,,0.10,,2013-02-27 23:11:00,
2013-02-27 18:21:00,67.0,65.0,29.92,SSE,159,0.0,0.0,92,0.00,,,0.10,,2013-02-27 23:21:00,
2013-02-27 18:32:00,67.0,65.0,29.92,SSE,159,0.0,0.0,93,0.00,,,0.10,,2013-02-27 23:32:00,
2013-02-27 18:42:00,67.0,65.0,29.92,SSE,159,0.0,0.0,93,0.00,,,0.10,,2013-02-27 23:42:00,
2013-02-27 18:53:00,67.0,65.0,29.93,SSE,159,0.0,0.0,92,0.00,,,0.10,,2013-02-27 23:53:00,
2013-02-27 19:02:00,67.0,65.0,29.93,SSE,159,0.0,1.0,92,0.00,,,0.10,,2013-02-28 00:02:00,
2013-02-27 19:12:00,67.0,65.0,29.93,SSE,159,0.0,1.0,92,0.00,,,0.10,,2013-02-28 00:12:00,
2013-02-27 19:21:00,67.0,65.0,29.94,SSE,159,0.0,0.0,93,0.01,,,0.11,,2013-02-28 00:21:00,
2013-02-27 19:32:00,67.0,65.0,29.94,SSE,159,0.0,0.0,93,0.01,,,0.11,,2013-02-28 00:32:00,
2013-02-27 19:42:00,67.0,65.0,29.94,SSE,159,0.0,0.0,93,0.01,,,0.11,,2013-02-28 00:42:00,
2013-02-27 19:52:00,66.0,64.0,29.93,SSE,159,0.0,0.0,93,0.01,,,0.11,,2013-02-28 00:52:00,
2013-02-27 20:01:00,66.0,64.0,29.93,SSE,159,0.0,0.0,93,0.01,,,0.11,,2013-02-28 01:01:00,
2013-02-27 20:11:00,66.0,64.0,29.93,SSE,159,0.0,0.0,93,0.01,,,0.11,,2013-02-28 01:11:00,
2013-02-27 20:22:00,66.0,64.0,29.93,SSE,159,0.0,0.0,93,0.00,,,0.11,,2013-02-28 01:22:00,
2013-02-27 20:32:00,66.0,64.0,29.93,SSE,159,0.0,0.0,93,0.00,,,0.11,,2013-02-28 01:32:00,
2013-02-27 20:42:00,66.0,64.0,29.93,SSE,159,0.0,0.0,93,0.00,,,0.11,,2013-02-28 01:42:00,
2013-02-27 20:52:00,66.0,64.0,29.94,SSE,159,0.0,0.0,94,0.00,,,0.11,,2013-02-28 01:52:00,
2013-02-27 21:01:00,66.0,64.0,29.94,SSE,159,0.0,0.0,94,0.00,,,0.11,,2013-02-28 02:01:00,
2013-02-27 21:11:00,66.0,64.0,29.94,SSE,159,0.0,0.0,94,0.00,,,0.11,,2013-02-28 02:11:00,
2013-02-27 21:22:00,66.0,64.0,29.94,SSE,159,0.0,0.0,94,0.00,,,0.11,,2013-02-28 02:22:00,
2013-02-27 21:32:00,65.0,63.0,29.94,SSE,159,0.0,0.0,94,0.00,,,0.11,,2013-02-28 02:32:00,
2013-02-27 21:41:00,65.0,63.0,29.94,SSE,159,0.0,0.0,94,0.00,,,0.11,,2013-02-28 02:41:00,
2013-02-27 21:52:00,65.0,63.0,29.94,SSE,159,0.0,0.0,94,0.00,,,0.11,,2013-02-28 02:52:00,
2013-02-27 22:01:00,66.0,65.0,29.96,SSE,159,0.0,0.0,95,0.00,,,0.11,,2013-02-28 03:01:00,
2013-02-27 22:11:00,66.0,65.0,29.96,SSE,159,0.0,0.0,95,0.00,,,0.11,,2013-02-28 03:11:00,
2013-02-27 22:21:00,65.0,64.0,29.97,SSE,159,0.0,0.0,95,0.00,,,0.11,,2013-02-28 03:21:00,
2013-02-27 22:32:00,65.0,63.0,29.97,SSE,159,0.0,1.0,94,0.00,,,0.11,,2013-02-28 03:32:00,
2013-02-27 22:42:00,65.0,63.0,29.97,SSE,159,0.0,1.0,94,0.00,,,0.11,,2013-02-28 03:42:00,
2013-02-27 22:52:00,65.0,63.0,29.97,SSE,159,0.0,1.0,94,0.00,,,0.11,,2013-02-28 03:52:00,
2013-02-27 23:02:00,64.0,62.0,29.97,SSE,159,0.0,1.0,94,0.00,,,0.11,,2013-02-28 04:02:00,
2013-02-27 23:11:00,64.0,62.0,29.97,SSE,159,0.0,1.0,94,0.00,,,0.11,,2013-02-28 04:11:00,
2013-02-27 23:22:00,64.0,62.0,29.96,SSE,159,0.0,0.0,94,0.00,,,0.11,,2013-02-28 04:22:00,
2013-02-27 23:32:00,64.0,62.0,29.96,SSE,159,0.0,0.0,94,0.00,,,0.11,,2013-02-28 04:32:00,
2013-02-27 23:42:00,64.0,62.0,29.96,SSE,159,0.0,0.0,94,0.00,,,0.11,,2013-02-28 04:42:00,
2013-02-27 23:52:00,64.0,62.0,29.96,SSE,159,0.0,0.0,94,0.00,,,0.11,,2013-02-28 04:52:00,